Flag for U.S.A. Weather past 2 weeks in Beaumont, Texas, U.S.A.

Now
81 °F

Sunny.


Feels Like: 88 °F
Forecast: 73 / 90 °F
Wind: 5 mph from South

Location: Jefferson County Airport

Current Time: Sep 4, 2015 at 8:43:22 PM

Latest Report: Sep 4, 2015 at 7:53 PM


Visibility: 10 mi

Pressure: 29.93 "Hg

Humidity: 88%

Dew point: 77 °F

Location of BeaumontLocation

Historic Weather in Beaumont — Graph

°F

Beaumont temperature yesterday

Maximum temperature yesterday: 88 °F (at 1:53 PM)
Minimum temperature yesterday: 77 °F (at 2:53 AM)
Average temperature yesterday: 81 °F

Past Weeks' High & Low Weather Summary

 TemperatureHumidityPressure
High96 °F (Aug 24, 3:53 PM)100% (Aug 23, 4:53 AM)30.12 "Hg (Aug 23, 4:53 AM)
Low67 °F (Aug 29, 6:53 AM)38% (Aug 27, 12:53 PM)29.86 "Hg (Sep 3, 7:53 PM)
Average80 °F80%29.99 "Hg
* Reported Aug 20 6:53 PM — Sep 4 6:53 PM, Beaumont, Weather by CustomWeather, © 2015

Note: Actual official high and low records may vary slightly from our data, if they occured in-between our weather recording intervals... More about our weather records

Advertising

Beaumont weather history for previous 24 hours

 ConditionsComfort  
Time TempWeatherWind HumidityBarometerVisibility
6:53 PM
Fri, Sep 4
84 °FSunny.5 mph80%29.93 "Hg10 mi
5:53 PM84 °FPassing clouds.7 mph77%29.93 "Hg10 mi
4:53 PM90 °FPartly sunny.10 mph66%29.92 "Hg10 mi
3:53 PM90 °FPartly sunny.9 mph68%29.92 "Hg10 mi
2:53 PM88 °FScattered clouds.3 mph70%29.94 "Hg10 mi
1:53 PM83 °FLight rain. Broken clouds.6 mph85%29.95 "Hg10 mi
12:53 PM80 °FFog.12 mph87%29.96 "Hg3 mi
11:53 AM86 °FPartly sunny.6 mph72%29.97 "Hg10 mi
10:53 AM84 °FSunny.No wind74%29.98 "Hg10 mi
9:53 AM80 °FBroken clouds.5 mph85%29.97 "Hg10 mi
8:53 AM82 °FScattered clouds.3 mph79%29.96 "Hg10 mi
7:53 AM78 °FPassing clouds.No wind90%29.95 "Hg10 mi
6:53 AM76 °FPassing clouds.3 mph97%29.93 "Hg10 mi
5:53 AM76 °FClear.No wind97%29.92 "Hg10 mi
4:53 AM76 °FPassing clouds.No wind97%29.91 "Hg10 mi
3:53 AM76 °FClear.No wind97%29.90 "Hg10 mi
2:53 AM76 °FClear.No wind97%29.90 "Hg10 mi
1:53 AM78 °FClear.3 mph90%29.89 "Hg10 mi
12:53 AM77 °FClear.No wind94%29.89 "Hg10 mi
11:53 PM
Thu, Sep 3
77 °FClear.No wind90%29.90 "Hg10 mi
10:53 PM78 °FClear.3 mph90%29.90 "Hg10 mi
9:53 PM78 °FClear.6 mph90%29.90 "Hg10 mi
8:53 PM78 °FPassing clouds.3 mph90%29.88 "Hg10 mi
Weather by CustomWeather, © 2015

See weather overviewHow to use our weather pages